| time (UTC) | temp F | wind direction | speed MPH | gust MPH | rain 1hr in | rain 24hr in | rain mn in | humidity % | barometer mb |
| 20260904123349 | 78 | 274 | 2.0 | 2.0 | 0.00 | 0.00 | 0.00 | 93 | 1014.6 |
| 20260904122844 | 78 | 10 | 0.0 | 2.0 | 0.00 | 0.00 | 0.00 | 93 | 1014.6 |
| 20260904122338 | 78 | 320 | 2.0 | 2.0 | 0.00 | 0.00 | 0.00 | 93 | 1014.7 |
| 20260904121833 | 78 | 86 | 1.0 | 5.0 | 0.00 | 0.00 | 0.00 | 93 | 1014.5 |
| 20260904121330 | 78 | 145 | 2.0 | 3.0 | 0.00 | 0.00 | 0.00 | 93 | 1014.6 |
| 20260904120826 | 78 | 147 | 1.0 | 3.0 | 0.00 | 0.00 | 0.00 | 93 | 1014.3 |
| 20260904120321 | 78 | 271 | 0.0 | 2.0 | 0.00 | 0.00 | 0.00 | 93 | 1014.4 |
| 20260904115816 | 78 | 136 | 2.0 | 3.0 | 0.00 | 0.00 | 0.00 | 93 | 1014.4 |
| 20260904115311 | 78 | 166 | 0.0 | 2.0 | 0.00 | 0.00 | 0.00 | 93 | 1014.3 |
| 20260904114811 | 78 | 124 | 2.0 | 3.0 | 0.00 | 0.00 | 0.00 | 93 | 1014.3 |
| 20260904114306 | 78 | 148 | 2.0 | 4.0 | 0.00 | 0.00 | 0.00 | 92 | 1014.2 |
| 20260904113801 | 78 | 114 | 1.0 | 3.0 | 0.00 | 0.00 | 0.00 | 92 | 1014.2 |
| 20260904113300 | 78 | 145 | 3.0 | 3.0 | 0.00 | 0.00 | 0.00 | 92 | 1014.1 |
| 20260904112755 | 78 | 210 | 1.0 | 3.0 | 0.00 | 0.00 | 0.00 | 92 | 1014.0 |
| 20260904112251 | 78 | 114 | 1.0 | 4.0 | 0.00 | 0.00 | 0.00 | 92 | 1014.2 |
| 20260904111747 | 78 | 173 | 2.0 | 6.0 | 0.00 | 0.00 | 0.00 | 92 | 1014.2 |
| 20260904111242 | 78 | 260 | 0.0 | 1.0 | 0.00 | 0.00 | 0.00 | 92 | 1013.9 |
| 20260904110738 | 78 | 302 | 0.0 | 2.0 | 0.00 | 0.00 | 0.00 | 92 | 1013.7 |
| 20260904110237 | 78 | 195 | 3.0 | 4.0 | 0.00 | 0.00 | 0.00 | 92 | 1013.9 |
| 20260904105732 | 78 | 272 | 2.0 | 3.0 | 0.00 | 0.00 | 0.00 | 92 | 1013.9 |
| 20260904105227 | 78 | 308 | 1.0 | 2.0 | 0.00 | 0.00 | 0.00 | 92 | 1013.8 |
| 20260904104722 | 78 | 131 | 1.0 | 5.0 | 0.00 | 0.00 | 0.00 | 92 | 1013.8 |
| 20260904104217 | 78 | 191 | 1.0 | 2.0 | 0.00 | 0.00 | 0.00 | 92 | 1013.7 |
| 20260904103715 | 78 | 256 | 0.0 | 2.0 | 0.00 | 0.00 | 0.00 | 92 | 1014.1 |
| 20260904103209 | 79 | 167 | 0.0 | 3.0 | 0.00 | 0.00 | 0.00 | 92 | 1014.1 |
| 20260904102705 | 79 | 103 | 0.0 | 3.0 | 0.00 | 0.00 | 0.00 | 91 | 1014.0 |
| 20260904102200 | 79 | 123 | 0.0 | 2.0 | 0.00 | 0.00 | 0.00 | 92 | 1013.9 |
| 20260904101657 | 78 | 107 | 0.0 | 3.0 | 0.00 | 0.00 | 0.00 | 92 | 1013.8 |
| 20260904101152 | 78 | 257 | 0.0 | 1.0 | 0.00 | 0.00 | 0.00 | 92 | 1013.8 |
| 20260904100648 | 78 | 218 | 0.0 | 0.0 | 0.00 | 0.00 | 0.00 | 92 | 1013.9 |
| 20260904100143 | 78 | 224 | 0.0 | 1.0 | 0.00 | 0.00 | 0.00 | 93 | 1013.9 |
| 20260904095643 | 78 | 129 | 0.0 | 1.0 | 0.00 | 0.00 | 0.00 | 93 | 1013.8 |
| 20260904095137 | 78 | 284 | 0.0 | 0.0 | 0.00 | 0.00 | 0.00 | 93 | 1013.7 |
| 20260904094632 | 78 | 269 | 0.0 | 1.0 | 0.00 | 0.00 | 0.00 | 93 | 1013.8 |
| 20260904094127 | 78 | 284 | 0.0 | 1.0 | 0.00 | 0.00 | 0.00 | 93 | 1013.8 |
| 20260904093624 | 78 | 278 | 1.0 | 2.0 | 0.00 | 0.00 | 0.00 | 93 | 1013.7 |
| 20260904093124 | 78 | 256 | 0.0 | 0.0 | 0.00 | 0.00 | 0.00 | 93 | 1013.6 |
| 20260904092620 | 78 | 284 | 1.0 | 1.0 | 0.00 | 0.00 | 0.00 | 93 | 1013.6 |
| 20260904092116 | 78 | 250 | 1.0 | 1.0 | 0.00 | 0.00 | 0.00 | 92 | 1013.5 |
| 20260904091612 | 78 | 236 | 2.0 | 2.0 | 0.00 | 0.00 | 0.00 | 93 | 1013.6 |
| 20260904091111 | 78 | 352 | 0.0 | 1.0 | 0.00 | 0.00 | 0.00 | 92 | 1013.7 |
| 20260904090607 | 78 | 147 | 0.0 | 1.0 | 0.00 | 0.00 | 0.00 | 92 | 1013.7 |
| 20260904085602 | 78 | 217 | 0.0 | 0.0 | 0.00 | 0.00 | 0.00 | 92 | 1013.8 |
| 20260904085057 | 78 | 230 | 0.0 | 2.0 | 0.00 | 0.00 | 0.00 | 92 | 1013.5 |
| 20260904084553 | 78 | 281 | 0.0 | 2.0 | 0.00 | 0.00 | 0.00 | 92 | 1013.4 |
| 20260904084049 | 78 | 242 | 0.0 | 2.0 | 0.00 | 0.00 | 0.00 | 91 | 1013.6 |
| 20260904083544 | 78 | 272 | 1.0 | 2.0 | 0.00 | 0.00 | 0.00 | 91 | 1013.7 |
| 20260904083040 | 78 | 307 | 1.0 | 2.0 | 0.00 | 0.00 | 0.00 | 91 | 1013.6 |
| 20260904082535 | 78 | 269 | 0.0 | 1.0 | 0.00 | 0.00 | 0.00 | 91 | 1013.6 |
| 20260904082031 | 78 | 230 | 0.0 | 0.0 | 0.00 | 0.00 | 0.00 | 90 | 1013.6 |
| 20260904081526 | 79 | 312 | 0.0 | 3.0 | 0.00 | 0.00 | 0.00 | 90 | 1013.6 |
| 20260904081021 | 79 | 284 | 0.0 | 2.0 | 0.00 | 0.00 | 0.00 | 90 | 1013.6 |
| 20260904080516 | 79 | 283 | 1.0 | 2.0 | 0.00 | 0.00 | 0.00 | 90 | 1013.7 |
| 20260904080013 | 79 | 304 | 0.0 | 2.0 | 0.00 | 0.00 | 0.00 | 89 | 1013.8 |
| 20260904075508 | 79 | 224 | 0.0 | 2.0 | 0.00 | 0.00 | 0.00 | 89 | 1013.8 |
| 20260904075003 | 79 | 249 | 0.0 | 2.0 | 0.00 | 0.00 | 0.00 | 89 | 1013.9 |
| 20260904074457 | 79 | 236 | 0.0 | 2.0 | 0.00 | 0.00 | 0.00 | 89 | 1013.9 |
| 20260904073952 | 79 | 284 | 0.0 | 2.0 | 0.00 | 0.00 | 0.00 | 89 | 1013.9 |
| 20260904073447 | 79 | 316 | 1.0 | 1.0 | 0.00 | 0.00 | 0.00 | 88 | 1013.8 |
| 20260904072943 | 80 | 256 | 1.0 | 3.0 | 0.00 | 0.00 | 0.00 | 88 | 1014.0 |
| 20260904072439 | 80 | 215 | 2.0 | 4.0 | 0.00 | 0.00 | 0.00 | 88 | 1013.9 |
| 20260904071938 | 80 | 228 | 1.0 | 3.0 | 0.00 | 0.00 | 0.00 | 88 | 1014.1 |
| 20260904071435 | 80 | 315 | 0.0 | 2.0 | 0.00 | 0.00 | 0.00 | 87 | 1014.2 |
| 20260904070929 | 80 | 285 | 1.0 | 4.0 | 0.00 | 0.00 | 0.00 | 87 | 1014.3 |
| 20260904070428 | 80 | 232 | 2.0 | 3.0 | 0.00 | 0.00 | 0.00 | 87 | 1014.2 |
| 20260904065922 | 80 | 343 | 1.0 | 2.0 | 0.00 | 0.00 | 0.00 | 87 | 1014.1 |
| 20260904065419 | 80 | 261 | 1.0 | 4.0 | 0.00 | 0.00 | 0.00 | 87 | 1013.9 |
| 20260904064919 | 80 | 333 | 0.0 | 2.0 | 0.00 | 0.00 | 0.00 | 86 | 1014.2 |
| 20260904064415 | 80 | 289 | 1.0 | 3.0 | 0.00 | 0.00 | 0.00 | 86 | 1014.2 |
| 20260904063910 | 80 | 240 | 3.0 | 5.0 | 0.00 | 0.00 | 0.00 | 86 | 1014.3 |
| 20260904063407 | 80 | 282 | 0.0 | 3.0 | 0.00 | 0.00 | 0.00 | 86 | 1014.2 |
| 20260904062901 | 80 | 228 | 0.0 | 4.0 | 0.00 | 0.00 | 0.00 | 85 | 1014.2 |
| 20260904062357 | 80 | 249 | 0.0 | 3.0 | 0.00 | 0.00 | 0.00 | 85 | 1014.6 |
| 20260904061853 | 80 | 190 | 3.0 | 3.0 | 0.00 | 0.00 | 0.00 | 85 | 1014.3 |
| 20260904061349 | 80 | 104 | 0.0 | 4.0 | 0.00 | 0.00 | 0.00 | 85 | 1014.2 |
| 20260904060845 | 80 | 62 | 2.0 | 5.0 | 0.00 | 0.00 | 0.00 | 84 | 1014.3 |
| 20260904060341 | 80 | 201 | 3.0 | 4.0 | 0.00 | 0.00 | 0.00 | 84 | 1014.1 |
| 20260904055835 | 80 | 325 | 1.0 | 4.0 | 0.00 | 0.00 | 0.00 | 84 | 1014.4 |
| 20260904055331 | 80 | 209 | 3.0 | 3.0 | 0.00 | 0.00 | 0.00 | 84 | 1014.2 |
| 20260904054827 | 80 | 338 | 1.0 | 4.0 | 0.00 | 0.00 | 0.00 | 84 | 1014.3 |
| 20260904054323 | 80 | 228 | 2.0 | 3.0 | 0.00 | 0.00 | 0.00 | 84 | 1014.3 |
| 20260904053818 | 80 | 292 | 2.0 | 3.0 | 0.00 | 0.00 | 0.00 | 84 | 1014.4 |
| 20260904053317 | 80 | 230 | 0.0 | 4.0 | 0.00 | 0.00 | 0.00 | 84 | 1014.4 |
| 20260904052813 | 80 | 304 | 0.0 | 3.0 | 0.00 | 0.00 | 0.00 | 84 | 1014.3 |
| 20260904052310 | 80 | 225 | 3.0 | 4.0 | 0.00 | 0.00 | 0.00 | 84 | 1014.3 |
| 20260904051806 | 81 | 0 | 0.0 | 2.0 | 0.00 | 0.00 | 0.00 | 84 | 1014.4 |
| 20260904051301 | 81 | 193 | 0.0 | 5.0 | 0.00 | 0.00 | 0.00 | 83 | 1014.2 |
| 20260904050756 | 81 | 204 | 2.0 | 4.0 | 0.00 | 0.00 | 0.00 | 83 | 1014.1 |
| 20260904050253 | 81 | 238 | 2.0 | 3.0 | 0.00 | 0.00 | 0.00 | 83 | 1014.4 |
| 20260904045747 | 81 | 353 | 0.0 | 5.0 | 0.00 | 0.00 | 0.00 | 82 | 1014.0 |
| 20260904045241 | 81 | 306 | 2.0 | 5.0 | 0.00 | 0.00 | 0.00 | 82 | 1014.3 |
| 20260904044736 | 81 | 273 | 1.0 | 4.0 | 0.00 | 0.00 | 0.00 | 81 | 1014.2 |
| 20260904044233 | 81 | 262 | 0.0 | 3.0 | 0.00 | 0.00 | 0.00 | 81 | 1014.2 |
| 20260904043729 | 82 | 234 | 3.0 | 7.0 | 0.00 | 0.00 | 0.00 | 80 | 1014.1 |
| 20260904043225 | 82 | 233 | 1.0 | 4.0 | 0.00 | 0.00 | 0.00 | 79 | 1014.2 |
| 20260904042720 | 82 | 197 | 3.0 | 4.0 | 0.00 | 0.00 | 0.00 | 78 | 1014.1 |
| 20260904042217 | 82 | 214 | 1.0 | 6.0 | 0.00 | 0.00 | 0.00 | 77 | 1014.0 |
| 20260904041716 | 82 | 119 | 2.0 | 5.0 | 0.00 | 0.00 | 0.00 | 76 | 1014.1 |
| 20260904041212 | 82 | 162 | 2.0 | 4.0 | 0.00 | 0.00 | 0.00 | 76 | 1013.9 |
| 20260904040708 | 82 | 220 | 9.0 | 10.0 | 0.00 | 0.00 | 0.00 | 75 | 1013.9 |
| 20260904040204 | 82 | 302 | 1.0 | 3.0 | 0.00 | 0.00 | 0.00 | 74 | 1013.7 |
| 20260904035659 | 83 | 198 | 1.0 | 5.0 | 0.00 | 0.00 | 0.00 | 74 | 1013.7 |
| 20260904035154 | 83 | 261 | 0.0 | 5.0 | 0.00 | 0.00 | 0.00 | 73 | 1014.0 |
| 20260904034653 | 83 | 225 | 0.0 | 3.0 | 0.00 | 0.00 | 0.00 | 72 | 1013.9 |
| 20260904034149 | 83 | 162 | 0.0 | 4.0 | 0.00 | 0.00 | 0.00 | 72 | 1013.5 |
| 20260904033645 | 83 | 179 | 0.0 | 4.0 | 0.00 | 0.00 | 0.00 | 72 | 1013.5 |
| 20260904033142 | 83 | 120 | 0.0 | 5.0 | 0.00 | 0.00 | 0.00 | 72 | 1013.6 |
| 20260904032637 | 83 | 268 | 0.0 | 2.0 | 0.00 | 0.00 | 0.00 | 71 | 1013.6 |
| 20260904032136 | 84 | 107 | 0.0 | 3.0 | 0.00 | 0.00 | 0.00 | 71 | 1013.6 |
| 20260904031635 | 84 | 228 | 0.0 | 3.0 | 0.00 | 0.00 | 0.00 | 71 | 1013.6 |
| 20260904031132 | 84 | 151 | 0.0 | 3.0 | 0.00 | 0.00 | 0.00 | 70 | 1013.4 |
| 20260904030627 | 84 | 17 | 2.0 | 2.0 | 0.00 | 0.00 | 0.00 | 70 | 1013.5 |
| 20260904030123 | 84 | 142 | 1.0 | 3.0 | 0.00 | 0.00 | 0.00 | 70 | 1013.4 |
| 20260904025618 | 84 | 134 | 0.0 | 3.0 | 0.00 | 0.00 | 0.00 | 70 | 1013.2 |
| 20260904025113 | 84 | 107 | 2.0 | 3.0 | 0.00 | 0.00 | 0.00 | 70 | 1013.1 |
| 20260904024608 | 84 | 141 | 3.0 | 3.0 | 0.00 | 0.00 | 0.00 | 70 | 1013.1 |
| 20260904024104 | 85 | 126 | 2.0 | 4.0 | 0.00 | 0.00 | 0.00 | 69 | 1013.0 |
| 20260904023600 | 84 | 162 | 0.0 | 4.0 | 0.00 | 0.00 | 0.00 | 70 | 1012.9 |
| 20260904023055 | 85 | 113 | 2.0 | 6.0 | 0.00 | 0.00 | 0.00 | 70 | 1012.9 |
| 20260904022550 | 85 | 155 | 2.0 | 4.0 | 0.00 | 0.00 | 0.00 | 69 | 1012.8 |
| 20260904022047 | 85 | 355 | 2.0 | 3.0 | 0.00 | 0.00 | 0.00 | 69 | 1012.9 |
| 20260904021542 | 85 | 103 | 2.0 | 5.0 | 0.00 | 0.00 | 0.00 | 69 | 1012.7 |
| 20260904021037 | 85 | 133 | 3.0 | 4.0 | 0.00 | 0.00 | 0.00 | 69 | 1012.7 |
| 20260904020532 | 85 | 153 | 2.0 | 5.0 | 0.00 | 0.00 | 0.00 | 68 | 1012.7 |
| 20260904020027 | 85 | 120 | 2.0 | 3.0 | 0.00 | 0.00 | 0.00 | 69 | 1012.6 |
| 20260904015521 | 86 | 125 | 3.0 | 5.0 | 0.00 | 0.00 | 0.00 | 68 | 1012.5 |
| 20260904015020 | 86 | 136 | 2.0 | 5.0 | 0.00 | 0.00 | 0.00 | 68 | 1012.3 |
| 20260904014514 | 86 | 175 | 2.0 | 6.0 | 0.00 | 0.00 | 0.00 | 68 | 1012.4 |
| 20260904014010 | 86 | 106 | 4.0 | 12.0 | 0.00 | 0.00 | 0.00 | 68 | 1012.4 |
| 20260904013507 | 86 | 132 | 0.0 | 6.0 | 0.00 | 0.00 | 0.00 | 68 | 1012.5 |
| 20260904013003 | 86 | 141 | 4.0 | 10.0 | 0.00 | 0.00 | 0.00 | 67 | 1012.4 |
| 20260904012502 | 86 | 180 | 0.0 | 11.0 | 0.00 | 0.00 | 0.00 | 67 | 1012.0 |
| 20260904011956 | 86 | 101 | 4.0 | 7.0 | 0.00 | 0.00 | 0.00 | 67 | 1012.2 |
| 20260904011451 | 86 | 97 | 9.0 | 10.0 | 0.00 | 0.00 | 0.00 | 67 | 1012.3 |
| 20260904010946 | 87 | 77 | 0.0 | 4.0 | 0.00 | 0.00 | 0.00 | 67 | 1012.2 |
| 20260904010443 | 87 | 151 | 3.0 | 4.0 | 0.00 | 0.00 | 0.00 | 67 | 1012.2 |
| 20260904005938 | 87 | 98 | 1.0 | 7.0 | 0.00 | 0.00 | 0.00 | 66 | 1012.0 |
| 20260904005433 | 87 | 102 | 5.0 | 7.0 | 0.00 | 0.00 | 0.00 | 66 | 1012.1 |
| 20260904004928 | 87 | 156 | 3.0 | 6.0 | 0.00 | 0.00 | 0.00 | 66 | 1011.9 |
| 20260904004424 | 87 | 100 | 3.0 | 6.0 | 0.00 | 0.00 | 0.00 | 66 | 1012.0 |
| 20260904003924 | 87 | 142 | 3.0 | 7.0 | 0.00 | 0.00 | 0.00 | 65 | 1011.9 |
| 20260904003420 | 87 | 89 | 4.0 | 8.0 | 0.00 | 0.00 | 0.00 | 65 | 1011.9 |
| 20260904002915 | 87 | 132 | 3.0 | 12.0 | 0.00 | 0.00 | 0.00 | 64 | 1012.2 |
| 20260904002412 | 88 | 138 | 3.0 | 10.0 | 0.00 | 0.00 | 0.00 | 64 | 1011.9 |
| 20260904001910 | 88 | 122 | 2.0 | 10.0 | 0.00 | 0.00 | 0.00 | 63 | 1012.0 |
| 20260904001407 | 88 | 112 | 4.0 | 9.0 | 0.00 | 0.00 | 0.00 | 62 | 1012.1 |
| 20260904000906 | 89 | 119 | 2.0 | 7.0 | 0.00 | 0.00 | 0.00 | 61 | 1012.0 |
| 20260904000406 | 89 | 123 | 5.0 | 7.0 | 0.00 | 0.00 | 0.00 | 60 | 1012.0 |
| 20260903235901 | 89 | 107 | 6.0 | 10.0 | 0.00 | 0.00 | 0.00 | 60 | 1011.7 |
| 20260903235357 | 89 | 106 | 7.0 | 11.0 | 0.00 | 0.00 | 0.00 | 60 | 1011.8 |
| 20260903234856 | 89 | 110 | 6.0 | 9.0 | 0.00 | 0.00 | 0.00 | 61 | 1011.5 |
| 20260903234352 | 90 | 155 | 2.0 | 11.0 | 0.00 | 0.00 | 0.00 | 60 | 1011.6 |
| 20260903233848 | 90 | 141 | 3.0 | 7.0 | 0.00 | 0.00 | 0.00 | 60 | 1011.3 |
| 20260903233344 | 90 | 122 | 3.0 | 10.0 | 0.00 | 0.00 | 0.00 | 58 | 1011.3 |
| 20260903232843 | 90 | 105 | 4.0 | 6.0 | 0.00 | 0.00 | 0.00 | 58 | 1011.6 |
| 20260903232339 | 90 | 131 | 1.0 | 13.0 | 0.00 | 0.00 | 0.00 | 59 | 1011.6 |
| 20260903231838 | 91 | 85 | 6.0 | 11.0 | 0.00 | 0.00 | 0.00 | 59 | 1011.3 |
| 20260903231333 | 91 | 93 | 9.0 | 11.0 | 0.00 | 0.00 | 0.00 | 59 | 1011.3 |
| 20260903230829 | 91 | 62 | 10.0 | 16.0 | 0.00 | 0.00 | 0.00 | 58 | 1011.5 |
| 20260903230324 | 91 | 141 | 3.0 | 12.0 | 0.00 | 0.00 | 0.00 | 58 | 1011.5 |
| 20260903225820 | 93 | 108 | 7.0 | 20.0 | 0.00 | 0.00 | 0.00 | 55 | 1011.5 |
| 20260903225316 | 95 | 188 | 2.0 | 13.0 | 0.00 | 0.00 | 0.00 | 49 | 1011.0 |
| 20260903224812 | 96 | 127 | 6.0 | 10.0 | 0.00 | 0.00 | 0.00 | 48 | 1011.2 |
| 20260903224308 | 96 | 104 | 7.0 | 9.0 | 0.00 | 0.00 | 0.00 | 48 | 1011.1 |
| 20260903223804 | 96 | 119 | 5.0 | 9.0 | 0.00 | 0.00 | 0.00 | 47 | 1010.9 |
| 20260903223302 | 96 | 314 | 0.0 | 5.0 | 0.00 | 0.00 | 0.00 | 48 | 1010.9 |
| 20260903222757 | 95 | 232 | 3.0 | 4.0 | 0.00 | 0.00 | 0.00 | 49 | 1010.9 |
| 20260903222256 | 95 | 197 | 2.0 | 4.0 | 0.00 | 0.00 | 0.00 | 51 | 1010.8 |
| 20260903221751 | 93 | 229 | 1.0 | 2.0 | 0.00 | 0.00 | 0.00 | 52 | 1010.9 |
| 20260903221250 | 93 | 238 | 2.0 | 5.0 | 0.00 | 0.00 | 0.00 | 51 | 1011.1 |
| 20260903220748 | 94 | 206 | 1.0 | 5.0 | 0.00 | 0.00 | 0.00 | 49 | 1011.0 |
| 20260903220243 | 94 | 223 | 2.0 | 4.0 | 0.00 | 0.00 | 0.00 | 48 | 1011.1 |
| 20260903215742 | 94 | 280 | 2.0 | 7.0 | 0.00 | 0.00 | 0.00 | 49 | 1011.0 |
| 20260903215238 | 95 | 165 | 2.0 | 4.0 | 0.00 | 0.00 | 0.00 | 48 | 1011.2 |
| 20260903214735 | 94 | 151 | 3.0 | 8.0 | 0.00 | 0.00 | 0.00 | 50 | 1011.0 |
| 20260903214232 | 92 | 288 | 2.0 | 6.0 | 0.00 | 0.00 | 0.00 | 52 | 1010.9 |
| 20260903213726 | 92 | 203 | 7.0 | 8.0 | 0.00 | 0.00 | 0.00 | 53 | 1011.2 |
| 20260903213222 | 92 | 165 | 2.0 | 13.0 | 0.00 | 0.00 | 0.00 | 54 | 1011.3 |
| 20260903212718 | 92 | 139 | 12.0 | 15.0 | 0.00 | 0.00 | 0.00 | 54 | 1011.1 |
| 20260903212215 | 93 | 297 | 3.0 | 9.0 | 0.00 | 0.00 | 0.00 | 53 | 1011.2 |
| 20260903211713 | 95 | 117 | 4.0 | 9.0 | 0.00 | 0.00 | 0.00 | 47 | 1011.2 |
| 20260903211210 | 96 | 138 | 8.0 | 10.0 | 0.00 | 0.00 | 0.00 | 46 | 1011.1 |
| 20260903210706 | 96 | 135 | 0.0 | 8.0 | 0.00 | 0.00 | 0.00 | 48 | 1011.0 |
| 20260903210201 | 98 | 97 | 6.0 | 6.0 | 0.00 | 0.00 | 0.00 | 45 | 1011.0 |
| 20260903205701 | 99 | 130 | 2.0 | 3.0 | 0.00 | 0.00 | 0.00 | 42 | 1011.2 |
| 20260903205200 | 100 | 244 | 4.0 | 4.0 | 0.00 | 0.00 | 0.00 | 40 | 1011.1 |
| 20260903204655 | 100 | 264 | 2.0 | 4.0 | 0.00 | 0.00 | 0.00 | 42 | 1011.1 |
| 20260903204151 | 100 | 174 | 2.0 | 4.0 | 0.00 | 0.00 | 0.00 | 41 | 1011.5 |
| 20260903203647 | 100 | 207 | 0.0 | 2.0 | 0.00 | 0.00 | 0.00 | 42 | 1011.4 |
| 20260903203142 | 100 | 218 | 3.0 | 4.0 | 0.00 | 0.00 | 0.00 | 41 | 1011.3 |
| 20260903202636 | 101 | 312 | 0.0 | 5.0 | 0.00 | 0.00 | 0.00 | 41 | 1011.4 |
| 20260903202132 | 101 | 276 | 2.0 | 4.0 | 0.00 | 0.00 | 0.00 | 41 | 1011.8 |
| 20260903201626 | 102 | 215 | 2.0 | 6.0 | 0.00 | 0.00 | 0.00 | 40 | 1011.7 |
| 20260903201126 | 102 | 282 | 2.0 | 7.0 | 0.00 | 0.00 | 0.00 | 40 | 1012.0 |
| 20260903200621 | 102 | 206 | 2.0 | 4.0 | 0.00 | 0.00 | 0.00 | 40 | 1011.7 |
| 20260903200116 | 103 | 283 | 2.0 | 9.0 | 0.00 | 0.00 | 0.00 | 40 | 1011.9 |
| 20260903195612 | 102 | 243 | 3.0 | 6.0 | 0.00 | 0.00 | 0.00 | 40 | 1011.8 |
| 20260903195107 | 102 | 269 | 4.0 | 5.0 | 0.00 | 0.00 | 0.00 | 40 | 1011.9 |
| 20260903194602 | 102 | 251 | 2.0 | 6.0 | 0.00 | 0.00 | 0.00 | 41 | 1012.2 |
| 20260903194057 | 101 | 228 | 2.0 | 5.0 | 0.00 | 0.00 | 0.00 | 43 | 1011.8 |
| 20260903193553 | 102 | 266 | 3.0 | 6.0 | 0.00 | 0.00 | 0.00 | 43 | 1012.0 |
| 20260903193049 | 101 | 242 | 2.0 | 5.0 | 0.00 | 0.00 | 0.00 | 42 | 1012.0 |
| 20260903192545 | 100 | 256 | 2.0 | 4.0 | 0.00 | 0.00 | 0.00 | 43 | 1012.2 |
| 20260903192040 | 100 | 312 | 4.0 | 4.0 | 0.00 | 0.00 | 0.00 | 43 | 1012.3 |
| 20260903191537 | 99 | 254 | 2.0 | 6.0 | 0.00 | 0.00 | 0.00 | 45 | 1012.3 |
| 20260903191036 | 100 | 261 | 3.0 | 6.0 | 0.00 | 0.00 | 0.00 | 45 | 1012.5 |
| 20260903190536 | 100 | 166 | 2.0 | 3.0 | 0.00 | 0.00 | 0.00 | 44 | 1012.6 |
| 20260903190030 | 98 | 278 | 1.0 | 3.0 | 0.00 | 0.00 | 0.00 | 46 | 1012.5 |
| 20260903185525 | 99 | 252 | 3.0 | 6.0 | 0.00 | 0.00 | 0.00 | 45 | 1012.6 |
| 20260903185020 | 98 | 281 | 3.0 | 5.0 | 0.00 | 0.00 | 0.00 | 49 | 1013.0 |
| 20260903184512 | 98 | 229 | 3.0 | 7.0 | 0.00 | 0.00 | 0.00 | 46 | 1013.0 |
| 20260903184012 | 97 | 265 | 3.0 | 7.0 | 0.00 | 0.00 | 0.00 | 49 | 1013.2 |
| 20260903183511 | 97 | 275 | 2.0 | 5.0 | 0.00 | 0.00 | 0.00 | 50 | 1013.2 |
| 20260903183006 | 97 | 317 | 3.0 | 5.0 | 0.00 | 0.00 | 0.00 | 50 | 1013.2 |
| 20260903182504 | 97 | 246 | 0.0 | 5.0 | 0.00 | 0.00 | 0.00 | 48 | 1013.5 |
| 20260903182000 | 96 | 146 | 5.0 | 5.0 | 0.00 | 0.00 | 0.00 | 50 | 1013.3 |
| 20260903181454 | 97 | 277 | 0.0 | 9.0 | 0.00 | 0.00 | 0.00 | 51 | 1013.5 |
| 20260903180953 | 96 | 257 | 1.0 | 5.0 | 0.00 | 0.00 | 0.00 | 51 | 1013.7 |
| 20260903180449 | 96 | 272 | 1.0 | 6.0 | 0.00 | 0.00 | 0.00 | 51 | 1013.6 |
| 20260903175948 | 95 | 346 | 2.0 | 7.0 | 0.00 | 0.00 | 0.00 | 51 | 1013.8 |
| 20260903175443 | 95 | 289 | 3.0 | 9.0 | 0.00 | 0.00 | 0.00 | 52 | 1013.8 |
| 20260903174941 | 96 | 237 | 4.0 | 7.0 | 0.00 | 0.00 | 0.00 | 49 | 1013.7 |
| 20260903174437 | 96 | 229 | 2.0 | 4.0 | 0.00 | 0.00 | 0.00 | 51 | 1013.8 |
| 20260903173936 | 96 | 227 | 5.0 | 7.0 | 0.00 | 0.00 | 0.00 | 51 | 1014.0 |
| 20260903173432 | 96 | 296 | 3.0 | 8.0 | 0.00 | 0.00 | 0.00 | 52 | 1014.0 |
| 20260903172927 | 95 | 267 | 3.0 | 7.0 | 0.00 | 0.00 | 0.00 | 55 | 1014.0 |
| 20260903172422 | 96 | 309 | 4.0 | 6.0 | 0.00 | 0.00 | 0.00 | 54 | 1014.2 |
| 20260903171918 | 96 | 263 | 3.0 | 6.0 | 0.00 | 0.00 | 0.00 | 53 | 1014.2 |
| 20260903171413 | 96 | 316 | 2.0 | 4.0 | 0.00 | 0.00 | 0.00 | 53 | 1014.2 |
| 20260903170913 | 94 | 274 | 3.0 | 9.0 | 0.00 | 0.00 | 0.00 | 55 | 1014.3 |
| 20260903170408 | 94 | 245 | 2.0 | 7.0 | 0.00 | 0.00 | 0.00 | 57 | 1014.4 |
| 20260903165906 | 93 | 241 | 3.0 | 7.0 | 0.00 | 0.00 | 0.00 | 57 | 1014.2 |
| 20260903165401 | 94 | 214 | 6.0 | 6.0 | 0.00 | 0.00 | 0.00 | 56 | 1014.3 |
| 20260903164855 | 93 | 249 | 4.0 | 7.0 | 0.00 | 0.00 | 0.00 | 57 | 1014.4 |
| 20260903164351 | 94 | 346 | 2.0 | 6.0 | 0.00 | 0.00 | 0.00 | 57 | 1014.4 |
| 20260903163850 | 93 | 233 | 6.0 | 9.0 | 0.00 | 0.00 | 0.00 | 58 | 1014.4 |
| 20260903163347 | 94 | 271 | 5.0 | 6.0 | 0.00 | 0.00 | 0.00 | 59 | 1014.3 |
| 20260903162842 | 93 | 203 | 2.0 | 6.0 | 0.00 | 0.00 | 0.00 | 59 | 1014.6 |
| 20260903162339 | 93 | 271 | 0.0 | 5.0 | 0.00 | 0.00 | 0.00 | 59 | 1014.5 |
| 20260903161834 | 93 | 227 | 3.0 | 9.0 | 0.00 | 0.00 | 0.00 | 59 | 1014.5 |
| 20260903161329 | 93 | 245 | 2.0 | 6.0 | 0.00 | 0.00 | 0.00 | 60 | 1014.7 |
| 20260903160825 | 93 | 201 | 2.0 | 7.0 | 0.00 | 0.00 | 0.00 | 61 | 1014.6 |
| 20260903160324 | 92 | 215 | 3.0 | 5.0 | 0.00 | 0.00 | 0.00 | 63 | 1014.6 |
| 20260903155822 | 91 | 217 | 3.0 | 7.0 | 0.00 | 0.00 | 0.00 | 62 | 1014.4 |
| 20260903155318 | 91 | 236 | 2.0 | 8.0 | 0.00 | 0.00 | 0.00 | 62 | 1014.3 |
| 20260903154813 | 92 | 217 | 3.0 | 5.0 | 0.00 | 0.00 | 0.00 | 61 | 1014.7 |
| 20260903154310 | 91 | 319 | 3.0 | 6.0 | 0.00 | 0.00 | 0.00 | 63 | 1014.6 |
| 20260903153805 | 90 | 306 | 3.0 | 7.0 | 0.00 | 0.00 | 0.00 | 63 | 1014.7 |
| 20260903153301 | 91 | 296 | 3.0 | 8.0 | 0.00 | 0.00 | 0.00 | 63 | 1014.6 |
| 20260903152757 | 91 | 169 | 9.0 | 9.0 | 0.00 | 0.00 | 0.00 | 63 | 1014.7 |
| 20260903152252 | 90 | 198 | 3.0 | 6.0 | 0.00 | 0.00 | 0.00 | 65 | 1014.6 |
| 20260903151752 | 90 | 237 | 2.0 | 5.0 | 0.00 | 0.00 | 0.00 | 66 | 1014.7 |
| 20260903151247 | 89 | 222 | 4.0 | 6.0 | 0.00 | 0.00 | 0.00 | 68 | 1014.6 |
| 20260903150748 | 89 | 297 | 1.0 | 5.0 | 0.00 | 0.00 | 0.00 | 69 | 1014.7 |
| 20260903150242 | 87 | 237 | 3.0 | 5.0 | 0.00 | 0.00 | 0.00 | 71 | 1014.5 |
| 20260903145738 | 88 | 245 | 3.0 | 6.0 | 0.00 | 0.00 | 0.00 | 70 | 1014.6 |
| 20260903145233 | 86 | 248 | 4.0 | 8.0 | 0.00 | 0.00 | 0.00 | 73 | 1014.6 |
| 20260903144731 | 86 | 233 | 4.0 | 5.0 | 0.00 | 0.00 | 0.00 | 74 | 1014.5 |
| 20260903144227 | 85 | 243 | 3.0 | 5.0 | 0.00 | 0.00 | 0.00 | 75 | 1014.5 |
| 20260903143723 | 85 | 246 | 4.0 | 7.0 | 0.00 | 0.00 | 0.00 | 75 | 1014.6 |
| 20260903143219 | 86 | 215 | 5.0 | 5.0 | 0.00 | 0.00 | 0.00 | 74 | 1014.9 |
| 20260903142715 | 86 | 224 | 3.0 | 7.0 | 0.00 | 0.00 | 0.00 | 74 | 1014.7 |
| 20260903142211 | 86 | 284 | 3.0 | 7.0 | 0.00 | 0.00 | 0.00 | 74 | 1014.7 |
| 20260903141706 | 87 | 292 | 4.0 | 5.0 | 0.00 | 0.00 | 0.00 | 74 | 1014.9 |
| 20260903141201 | 86 | 242 | 4.0 | 8.0 | 0.00 | 0.00 | 0.00 | 75 | 1014.7 |
| 20260903140657 | 86 | 269 | 1.0 | 6.0 | 0.00 | 0.00 | 0.00 | 76 | 1014.7 |
| 20260903140152 | 86 | 249 | 3.0 | 4.0 | 0.00 | 0.00 | 0.00 | 76 | 1014.6 |
| 20260903135647 | 84 | 284 | 5.0 | 5.0 | 0.00 | 0.00 | 0.00 | 77 | 1014.4 |
| 20260903135142 | 84 | 263 | 4.0 | 5.0 | 0.00 | 0.00 | 0.00 | 78 | 1014.7 |
| 20260903134641 | 84 | 284 | 1.0 | 5.0 | 0.00 | 0.00 | 0.00 | 79 | 1014.6 |
| 20260903134137 | 85 | 233 | 3.0 | 5.0 | 0.00 | 0.00 | 0.00 | 77 | 1014.9 |
| 20260903133635 | 85 | 266 | 3.0 | 4.0 | 0.00 | 0.00 | 0.00 | 77 | 1014.9 |
| 20260903133130 | 85 | 265 | 2.0 | 5.0 | 0.00 | 0.00 | 0.00 | 77 | 1014.7 |
| 20260903132625 | 85 | 217 | 4.0 | 4.0 | 0.00 | 0.00 | 0.00 | 77 | 1015.1 |
| 20260903132119 | 84 | 31 | 2.0 | 4.0 | 0.00 | 0.00 | 0.00 | 80 | 1014.9 |
| 20260903131614 | 83 | 262 | 2.0 | 6.0 | 0.00 | 0.00 | 0.00 | 81 | 1014.9 |
| 20260903131113 | 82 | 315 | 2.0 | 5.0 | 0.00 | 0.00 | 0.00 | 82 | 1015.0 |
| 20260903130609 | 82 | 237 | 3.0 | 3.0 | 0.00 | 0.00 | 0.00 | 83 | 1014.9 |
| 20260903125601 | 81 | 277 | 3.0 | 4.0 | 0.00 | 0.00 | 0.00 | 85 | 1014.9 |
| 20260903125056 | 81 | 202 | 2.0 | 5.0 | 0.00 | 0.00 | 0.00 | 85 | 1014.6 |
| 20260903124551 | 81 | 233 | 2.0 | 5.0 | 0.00 | 0.00 | 0.00 | 85 | 1014.6 |
| 20260903124051 | 81 | 289 | 3.0 | 3.0 | 0.00 | 0.00 | 0.00 | 85 | 1014.6 |
| 20260903123549 | 81 | 3 | 0.0 | 5.0 | 0.00 | 0.00 | 0.00 | 85 | 1014.5 |